Wind_Speed
2 1 1 1 1 1 0 1 1 2 2 2 3 4 4 4 3 4 5 5 5 5 6 6 6 6 7 7 7 8 8 8 8 8 8 8 9 9 10 10 11 11 11
1 1 1 0 0 0 1 2 2 3 3 3 4 4 4 4 4 5 5 6 5 6 6 6 6 7 8 8 8 9 9 9 8 9 9 9 9 10 11 11 12 12 12
2 1 1 1 1 1 2 3 3 4 4 4 4 5 5 5 5 6 6 7 7 7 7 8 8 9 9 9 8 9 9 9 9 10 10 11 10 11 11 11 11 12 12
2 1 1 1 2 3 3 4 4 4 4 4 4 5 5 6 6 7 7 8 8 9 9 10 10 11 11 10 10 10 10 10 11 11 11 12 11 11 11 11 11 11 12
2 2 2 3 3 3 3 3 4 4 4 5 5 5 6 7 8 8 8 9 10 10 11 11 12 12 12 10 10 10 11 12 12 12 12 12 12 12 11 12 12 12 12
2 2 2 3 4 3 4 4 4 5 5 5 6 6 7 8 8 9 9 10 10 10 11 11 12 12 11 11 11 11 11 11 11 12 13 12 12 12 12 13 13 13 13
3 3 3 3 3 3 4 4 4 5 5 6 7 7 8 9 9 9 9 9 9 10 10 11 11 11 11 10 10 10 11 11 12 13 13 13 13 13 13 13 14 14 14
5 4 4 3 4 4 4 4 4 5 6 7 8 8 8 8 9 9 9 9 10 11 11 11 12 12 11 10 9 9 11 12 12 12 12 13 13 13 13 13 13 14 14
6 5 4 4 5 4 5 5 5 6 6 7 7 8 8 8 8 8 9 10 10 11 11 11 11 11 9 9 9 10 11 11 11 12 12 12 12 13 14 14 14 15 14
6 6 6 6 6 6 6 6 6 6 6 6 7 7 8 8 8 8 10 10 10 10 10 11 11 11 9 9 9 10 11 11 11 11 11 12 12 13 13 13 14 15 14
7 7 7 7 7 7 7 7 7 7 7 7 7 8 8 9 10 10 9 9 9 10 10 10 11 10 10 10 10 10 11 11 12 12 12 12 13 13 13 14 14 14 14
8 8 8 7 8 8 8 8 8 8 8 8 8 8 9 10 10 10 10 9 10 10 11 11 11 11 10 11 12 11 11 12 12 12 11 12 13 13 14 14 14 14 14
9 9 9 8 9 9 9 9 9 10 9 8 9 10 10 11 11 11 11 11 11 11 11 12 11 11 11 11 12 12 12 12 12 11 11 11 12 13 14 14 14 14 15
11 10 10 10 10 10 10 10 10 10 10 10 10 11 11 11 11 11 11 11 11 11 12 12 12 12 12 12 12 12 13 13 12 12 12 12 12 13 14 15 15 15 15
12 12 12 12 12 13 12 12 11 11 11 11 11 11 11 12 12 12 12 13 13 12 12 13 13 13 13 13 13 13 13 13 13 13 14 14 13 14 14 15 15 16 16
14 14 14 15 14 13 13 13 13 13 13 13 12 13 13 13 13 13 13 14 14 14 13 13 13 14 14 13 14 15 15 15 15 15 15 16 15 15 16 16 16 17 17
14 14 14 14 15 15 15 14 14 14 14 14 14 14 14 14 14 14 14 15 16 16 15 14 15 14 14 15 15 16 17 17 17 17 17 17 17 17 17 17 18 19 19
15 14 14 15 16 16 16 15 15 15 15 16 16 15 16 16 16 16 16 16 17 17 16 17 17 16 16 17 17 18 19 19 19 19 19 19 20 20 20 20 20 20 20
15 15 16 16 17 18 18 17 16 16 16 17 17 17 17 17 17 17 17 18 18 18 19 19 18 18 19 19 19 20 20 21 22 21 22 22 22 22 22 22 22 22 22
16 17 18 18 18 18 18 17 17 17 18 18 18 18 18 19 18 18 18 19 20 20 21 21 21 21 21 21 21 21 21 22 22 23 23 23 23 23 23 23 24 23 23
17 17 18 18 18 18 18 18 18 18 18 18 19 19 20 20 19 19 20 20 21 21 22 22 22 23 23 23 23 23 23 23 23 24 24 24 23 23 24 25 25 25 25
19 19 19 20 20 20 20 19 19 19 20 20 20 20 21 20 21 21 22 22 23 23 24 25 25 25 25 25 25 25 24 24 24 25 25 26 25 25 25 25 25 25 26
20 20 21 21 22 22 21 21 20 20 21 21 22 22 22 22 22 23 24 24 25 26 26 26 27 27 26 26 26 26 26 26 26 26 26 26 26 26 26 26 26 26 26
22 22 22 22 22 22 23 23 22 22 22 22 23 23 22 23 24 24 25 26 26 26 27 27 27 27 27 27 27 27 27 27 27 27 26 26 27 26 26 27 28 28 27
23 23 23 23 24 23 24 24 24 23 24 24 24 24 24 24 25 25 26 26 26 27 27 27 27 27 27 27 27 27 27 27 27 28 29 29 28 28 28 28 29 29 28
23 24 24 24 25 25 25 25 25 25 25 25 25 26 26 25 26 26 26 27 27 27 27 27 27 28 28 27 28 28 28 28 29 29 30 30 30 30 29 30 30 29 29
Wind_Direction
105 89 119 85 98 138 194 258 286 306 316 321 324 311 307 292 282 279 280 274 273 271 272 275 281 277 273 274 272 261 258 259 259 259 260 265 270 272 271 270 268 267 265
111 118 91 46 15 206 249 266 276 294 304 308 312 308 307 308 296 295 293 284 279 278 282 285 287 285 284 283 277 267 261 259 259 260 263 266 271 274 276 274 272 269 267
75 64 22 312 303 285 267 264 276 285 299 303 304 303 303 302 298 296 299 296 284 282 284 290 292 292 289 287 282 272 267 264 264 265 268 271 267 269 273 274 274 271 265
47 22 355 287 291 296 276 274 283 282 292 296 295 293 295 298 295 291 292 290 286 286 285 289 293 292 289 285 280 273 269 264 266 267 271 272 269 271 271 275 277 277 269
16 348 317 294 301 298 287 297 292 285 284 287 286 284 288 293 290 288 287 286 287 288 288 291 289 288 288 285 283 275 271 267 268 271 273 275 272 272 271 274 276 275 270
9 356 327 308 307 296 294 296 295 285 282 279 282 289 293 293 289 288 291 292 290 294 294 294 293 287 287 286 282 275 272 272 272 274 275 275 275 272 271 271 273 271 267
12 16 8 352 337 323 310 303 299 292 289 285 284 285 288 292 294 293 293 297 298 297 297 298 298 296 295 291 284 279 275 278 275 276 277 277 275 277 270 270 271 268 264
357 347 348 351 343 340 333 323 310 299 292 289 288 290 290 290 293 297 298 297 296 293 298 300 299 298 294 288 282 285 283 286 283 284 282 278 277 278 275 273 274 271 266
356 352 345 344 343 337 327 320 315 306 298 295 294 295 299 300 296 300 296 298 296 294 297 297 299 303 296 290 286 287 287 286 285 285 281 279 280 279 277 275 274 273 269
347 344 340 341 340 332 324 318 313 304 300 301 303 303 308 305 303 301 302 303 303 302 302 298 297 298 294 289 289 291 290 288 287 286 284 284 285 281 281 279 276 272 270
338 338 333 329 327 326 321 317 319 313 309 306 306 308 310 311 308 308 307 303 300 301 300 300 297 293 287 286 287 291 290 286 289 289 288 285 287 284 282 282 279 275 272
321 327 327 321 318 316 315 316 315 316 314 311 307 306 311 313 312 310 308 305 302 301 300 301 298 297 293 289 287 289 291 288 286 288 287 284 283 283 280 282 280 276 272
311 312 315 314 314 314 311 309 310 308 305 303 301 303 307 308 310 310 308 306 304 303 303 303 304 302 296 293 292 293 294 290 288 287 287 286 285 282 280 280 279 279 276
302 304 308 308 310 310 309 304 301 302 301 301 299 298 301 304 306 308 309 307 305 304 305 309 308 305 302 297 293 293 294 293 288 285 285 289 288 286 285 281 278 277 275
297 301 306 305 310 311 307 302 298 300 302 301 298 299 300 303 306 306 307 307 305 303 304 304 307 306 302 298 296 294 292 292 288 286 285 286 289 289 288 286 281 276 275
295 294 296 300 304 307 309 305 299 298 300 300 299 299 300 301 305 306 306 307 307 306 303 302 302 303 301 297 296 295 293 290 286 284 283 284 285 287 284 282 281 277 275
298 293 294 298 301 303 304 303 300 296 296 296 295 296 298 298 300 303 304 304 306 306 302 299 299 299 298 297 295 293 292 290 287 284 283 282 281 282 282 281 279 278 275
296 292 293 298 300 300 301 300 297 296 295 292 293 294 294 294 295 298 301 301 302 301 300 298 295 294 295 293 292 292 291 290 288 284 281 279 279 280 279 278 278 277 277
290 290 292 297 298 298 299 296 295 295 295 293 291 291 292 293 294 294 297 297 298 297 296 297 296 294 294 293 291 290 290 289 287 285 283 280 279 280 280 278 276 275 277
288 290 292 294 296 296 296 294 293 292 293 292 291 292 294 294 294 293 294 296 296 295 295 295 294 293 291 291 290 290 289 287 285 285 285 284 282 281 280 279 277 275 275
287 289 289 291 292 293 293 291 290 290 290 290 291 292 292 293 293 293 293 293 294 293 293 293 292 292 290 288 288 288 287 286 285 285 284 284 284 282 279 278 279 276 274
286 287 288 287 289 290 290 290 289 289 288 288 290 292 292 293 292 292 293 293 292 292 291 290 291 292 290 287 285 285 285 284 283 283 283 284 284 283 281 280 279 277 276
287 286 286 286 287 286 287 287 286 287 288 290 291 291 292 291 291 291 293 292 291 291 292 291 291 291 291 288 286 284 283 282 282 282 282 282 283 283 281 280 280 279 277
285 288 288 287 286 285 283 284 285 287 288 289 289 288 289 290 291 291 291 292 291 291 292 292 292 291 290 290 288 285 283 282 282 282 280 279 281 282 281 280 279 278 277
282 285 288 287 286 284 282 282 283 285 287 287 287 288 289 290 290 290 290 290 290 292 292 291 291 290 289 291 291 288 285 282 281 282 282 282 280 280 281 281 280 278 276
282 284 286 287 285 283 283 282 282 283 285 288 288 287 289 290 290 290 290 290 291 291 292 292 291 290 290 290 290 290 288 286 283 282 282 282 281 280 280 279 278 277 276
Height
5892 5892 5892 5892 5892 5892 5892 5892 5892 5892 5891 5891 5890 5890 5889 5888 5887 5886 5885 5885 5884 5883 5883 5882 5881 5880 5879 5878 5876 5876 5876 5876 5876 5876 5876 5875 5875 5874 5874 5873 5872 5872 5871
5892 5892 5892 5892 5892 5892 5892 5891 5891 5891 5890 5890 5890 5889 5888 5887 5886 5885 5884 5883 5882 5882 5881 5880 5879 5878 5877 5875 5873 5873 5873 5874 5874 5874 5874 5873 5872 5872 5871 5870 5870 5869 5868
5892 5892 5892 5892 5892 5891 5891 5890 5890 5890 5889 5889 5888 5888 5887 5886 5885 5884 5883 5882 5881 5880 5879 5878 5877 5876 5874 5873 5872 5871 5871 5871 5871 5871 5871 5870 5869 5869 5868 5868 5867 5866 5865
5891 5891 5891 5891 5891 5890 5890 5889 5889 5888 5888 5888 5887 5886 5886 5885 5884 5883 5882 5880 5879 5878 5877 5876 5875 5873 5872 5871 5870 5869 5869 5869 5868 5868 5868 5867 5866 5866 5865 5865 5864 5863 5862
5891 5891 5890 5890 5889 5889 5889 5888 5887 5887 5886 5886 5885 5885 5884 5883 5882 5881 5880 5879 5877 5876 5875 5873 5872 5870 5869 5868 5868 5867 5866 5865 5865 5865 5865 5864 5863 5863 5862 5861 5861 5860 5859
5891 5890 5889 5889 5888 5888 5887 5887 5886 5885 5885 5884 5884 5883 5882 5881 5880 5879 5878 5876 5875 5874 5872 5871 5869 5868 5867 5866 5865 5864 5863 5862 5862 5862 5861 5860 5860 5859 5859 5858 5858 5857 5857
5890 5889 5889 5888 5887 5887 5886 5885 5885 5884 5883 5883 5882 5881 5880 5879 5878 5877 5876 5874 5873 5872 5870 5868 5867 5865 5864 5863 5862 5861 5860 5859 5858 5858 5857 5857 5856 5855 5855 5854 5854 5853 5853
5890 5889 5888 5887 5886 5885 5885 5884 5883 5882 5882 5881 5880 5879 5878 5877 5876 5874 5873 5872 5871 5869 5868 5866 5864 5863 5861 5860 5859 5858 5857 5856 5855 5854 5854 5853 5853 5852 5851 5851 5850 5850 5849
5889 5888 5887 5886 5885 5884 5883 5883 5882 5881 5880 5879 5878 5877 5876 5875 5873 5872 5871 5869 5868 5867 5865 5863 5862 5860 5858 5857 5856 5855 5854 5853 5852 5851 5850 5850 5849 5849 5848 5847 5847 5846 5845
5888 5887 5886 5885 5884 5883 5882 5881 5880 5879 5878 5877 5876 5874 5874 5872 5871 5870 5868 5867 5865 5864 5862 5861 5859 5857 5856 5854 5853 5852 5851 5850 5849 5848 5847 5847 5846 5845 5844 5844 5843 5842 5842
5887 5886 5885 5884 5883 5882 5880 5879 5878 5877 5876 5875 5874 5872 5871 5870 5869 5867 5866 5864 5863 5861 5859 5858 5856 5855 5853 5852 5851 5849 5848 5847 5846 5845 5844 5843 5842 5842 5841 5840 5840 5839 5838
5885 5884 5883 5882 5880 5879 5878 5877 5876 5875 5874 5873 5872 5870 5869 5868 5866 5865 5863 5862 5860 5859 5857 5855 5853 5852 5850 5849 5848 5846 5845 5844 5843 5841 5840 5839 5838 5838 5837 5837 5836 5835 5835
5883 5882 5880 5879 5878 5876 5875 5874 5873 5872 5871 5870 5869 5868 5867 5865 5864 5862 5861 5859 5857 5856 5854 5852 5850 5849 5847 5846 5844 5843 5842 5840 5839 5838 5837 5836 5835 5834 5833 5833 5832 5832 5831
5880 5879 5877 5876 5875 5874 5872 5871 5870 5869 5868 5867 5866 5865 5863 5862 5861 5859 5858 5856 5855 5853 5851 5850 5847 5845 5844 5842 5841 5839 5838 5837 5836 5834 5833 5832 5831 5830 5829 5829 5828 5828 5827
5877 5876 5875 5873 5872 5870 5869 5868 5867 5865 5864 5863 5862 5861 5860 5858 5857 5856 5854 5853 5851 5850 5848 5846 5844 5842 5840 5839 5837 5836 5835 5833 5832 5831 5830 5829 5828 5827 5826 5825 5824 5823 5823
5874 5873 5872 5870 5869 5867 5866 5864 5863 5862 5861 5860 5858 5857 5856 5855 5853 5852 5850 5849 5847 5846 5844 5843 5841 5839 5837 5835 5834 5832 5831 5829 5828 5827 5826 5824 5824 5822 5821 5820 5820 5819 5818
5869 5868 5868 5866 5865 5863 5862 5861 5859 5858 5857 5856 5854 5853 5852 5851 5849 5848 5846 5845 5843 5841 5840 5838 5837 5835 5833 5831 5829 5828 5826 5825 5823 5822 5821 5819 5818 5817 5816 5815 5815 5814 5813
5865 5864 5863 5862 5861 5859 5858 5856 5855 5854 5852 5851 5850 5849 5848 5846 5845 5843 5842 5840 5838 5837 5835 5833 5832 5830 5828 5826 5825 5823 5821 5819 5817 5816 5815 5813 5812 5811 5810 5810 5809 5808 5807
5860 5860 5859 5857 5856 5855 5853 5852 5851 5849 5848 5847 5845 5844 5843 5841 5840 5838 5837 5835 5833 5832 5830 5828 5826 5824 5823 5821 5819 5817 5815 5813 5811 5810 5808 5807 5806 5804 5803 5803 5802 5801 5801
5856 5855 5854 5852 5851 5850 5848 5847 5846 5844 5843 5841 5840 5839 5837 5836 5834 5833 5832 5830 5828 5826 5824 5822 5821 5819 5817 5815 5813 5811 5809 5807 5805 5804 5802 5800 5799 5797 5796 5796 5795 5794 5794
5851 5850 5848 5847 5845 5844 5843 5842 5840 5839 5837 5836 5835 5833 5832 5830 5829 5827 5826 5824 5822 5820 5818 5816 5814 5812 5810 5808 5806 5804 5802 5800 5799 5797 5795 5794 5792 5791 5790 5789 5788 5787 5787
5845 5844 5842 5841 5840 5839 5837 5836 5835 5833 5832 5830 5829 5827 5825 5824 5822 5821 5819 5817 5816 5814 5812 5810 5807 5805 5803 5801 5799 5797 5795 5793 5791 5790 5788 5787 5785 5784 5782 5781 5780 5779 5779
5838 5837 5836 5835 5834 5832 5831 5829 5828 5827 5826 5824 5823 5821 5819 5817 5816 5814 5812 5810 5808 5806 5804 5802 5800 5797 5795 5793 5791 5789 5787 5786 5784 5782 5781 5779 5778 5776 5774 5773 5772 5772 5771
5832 5830 5829 5828 5827 5825 5824 5823 5822 5821 5819 5818 5816 5814 5812 5811 5809 5807 5805 5803 5801 5798 5796 5794 5792 5789 5786 5784 5782 5781 5779 5777 5776 5774 5773 5772 5770 5768 5767 5765 5764 5763 5762
5825 5824 5823 5821 5820 5819 5818 5817 5815 5814 5813 5811 5809 5807 5805 5804 5802 5799 5798 5795 5793 5790 5788 5786 5783 5781 5778 5776 5773 5772 5770 5769 5768 5766 5764 5763 5761 5760 5759 5757 5756 5755 5754
5818 5817 5815 5814 5813 5812 5810 5809 5808 5807 5805 5803 5802 5800 5798 5796 5794 5791 5789 5787 5785 5783 5780 5778 5775 5773 5770 5768 5765 5763 5762 5760 5759 5757 5755 5754 5752 5751 5750 5748 5747 5746 5745